Date String (YYYY-MM-DD hh:mm:ss) UTC,Instrument flags,Ambient pressure (hPa),Sample flow (lpm),Bypass flow (lpm),Sample temperature (°C),Ambient temperature (°C),ASC tube jacket temperature (°C),LED temperature (°C),Box temperature (°C),Sample RH (%),Span deviation,Mass concentration (μg/m³),Mass concentration (μg/m³),Mass concentration (μg/m³)
DateTimeUTC,F1_M11,P_M11,Q1_M11,Q2_M11,T1_M11,T2_M11,T3_M11,T4_M11,T5_M11,U1_M11,ZSPAN_M11,X0_M11,X2_M11,X1_M11
2021-08-22 10:00:00,,0823.7,5.00,0.00,29.0,28.2,00.0,38.2,30.7,26.6,0002.0,0014.07,0009.10,0008.50
2021-08-22 10:01:00,,0823.7,5.00,0.00,28.9,28.2,00.0,38.2,30.7,26.6,0002.1,0013.97,0009.09,0008.48
2021-08-22 10:02:00,,0823.7,5.00,0.00,28.9,28.2,00.0,38.2,30.7,26.2,0002.1,0013.24,0009.06,0008.47
2021-08-22 10:03:00,,0823.6,4.99,0.00,28.9,28.2,00.0,38.1,30.7,25.8,0001.9,0013.06,0008.98,0008.43
2021-08-22 10:04:00,,0823.6,5.01,0.00,28.9,28.2,00.0,38.1,30.6,26.0,0001.9,0013.07,0008.94,0008.41
2021-08-22 10:05:00,,0823.5,4.99,0.00,28.9,28.2,00.0,38.1,30.6,25.5,0002.1,0013.04,0008.93,0008.38
2021-08-22 10:06:00,,0823.4,5.01,0.00,28.9,28.2,00.0,38.1,30.7,25.7,0002.2,0012.78,0008.90,0008.33
2021-08-22 10:07:00,,0823.4,4.99,0.00,28.9,28.3,00.0,38.1,30.7,25.9,0002.0,0012.74,0008.87,0008.29
2021-08-22 10:08:00,,0823.5,5.01,0.00,28.9,28.3,00.0,38.1,30.7,25.9,0002.1,0012.84,0008.86,0008.27
2021-08-22 10:09:00,,0823.6,5.00,0.00,28.9,28.3,00.0,38.1,30.7,25.9,0002.1,0012.90,0008.83,0008.25
2021-08-22 10:10:00,,0823.7,5.00,0.00,28.9,28.2,00.0,38.1,30.7,26.0,0002.2,0012.92,0008.84,0008.25
2021-08-22 10:11:00,,0823.7,5.01,0.00,28.9,28.2,00.0,38.1,30.6,26.4,0002.0,0012.89,0008.82,0008.25
2021-08-22 10:12:00,,0823.7,5.00,0.00,28.9,28.2,00.0,38.1,30.6,26.3,0002.1,0013.17,0008.84,0008.25
2021-08-22 10:13:00,,0823.7,5.00,0.00,28.9,28.2,00.0,38.1,30.6,26.1,0001.9,0013.07,0008.85,0008.26
2021-08-22 10:14:00,,0823.7,5.00,0.00,28.9,28.2,00.0,38.1,30.7,26.2,0002.0,0013.20,0008.87,0008.27
2021-08-22 10:15:00,,0823.7,5.00,0.00,28.9,28.3,00.0,38.1,30.7,25.7,0002.2,0013.13,0008.90,0008.30
2021-08-22 10:16:00,,0823.7,5.00,0.00,28.9,28.3,00.0,38.1,30.7,25.9,0002.0,0013.10,0008.87,0008.27
2021-08-22 10:17:00,,0823.7,5.00,0.00,28.9,28.3,00.0,38.1,30.7,25.8,0002.0,0013.00,0008.84,0008.27
2021-08-22 10:18:00,,0823.7,5.00,0.00,28.9,28.3,00.0,38.1,30.7,25.0,0002.0,0012.88,0008.79,0008.25
2021-08-22 10:19:00,,0823.7,5.01,0.00,28.9,28.3,00.0,38.1,30.7,25.2,0001.9,0012.69,0008.74,0008.23
2021-08-22 10:20:00,,0823.6,4.99,0.00,28.9,28.3,00.0,38.1,30.7,25.4,0001.8,0012.62,0008.73,0008.22
2021-08-22 10:21:00,,0823.6,4.99,0.00,28.9,28.3,00.0,38.1,30.7,25.4,0001.8,0012.90,0008.72,0008.20
2021-08-22 10:22:00,,0823.7,5.00,0.00,28.9,28.4,00.0,38.1,30.8,25.2,0001.9,0013.35,0008.72,0008.18
2021-08-22 10:23:00,,0823.7,5.00,0.00,29.0,28.4,00.0,38.1,30.8,25.5,0001.8,0012.85,0008.68,0008.17
2021-08-22 10:24:00,,0823.7,4.99,0.00,28.9,28.3,00.0,38.1,30.7,25.8,0002.1,0012.83,0008.64,0008.13
2021-08-22 10:25:00,,0823.7,5.00,0.00,28.9,28.3,00.0,38.1,30.7,26.0,0002.1,0012.71,0008.62,0008.10
2021-08-22 10:26:00,,0823.7,5.00,0.00,28.9,28.3,00.0,38.1,30.7,25.6,0002.0,0012.84,0008.63,0008.07
2021-08-22 10:27:00,,0823.7,5.00,0.00,28.9,28.3,00.0,38.1,30.7,25.0,0001.9,0012.89,0008.64,0008.07
2021-08-22 10:28:00,,0823.7,5.02,0.00,28.9,28.4,00.0,38.1,30.7,24.7,0001.9,0013.03,0008.68,0008.07
2021-08-22 10:29:00,,0823.7,5.01,0.00,29.0,28.4,00.0,38.1,30.8,24.5,0002.0,0013.17,0008.72,0008.07
2021-08-22 10:30:00,,0823.7,4.99,0.00,28.9,28.3,00.0,38.1,30.7,24.6,0002.0,0013.24,0008.73,0008.07
2021-08-22 10:31:00,,0823.6,5.00,0.00,28.9,28.3,00.0,38.1,30.7,25.1,0002.0,0013.28,0008.72,0008.06
2021-08-22 10:32:00,,0823.6,4.99,0.00,28.9,28.3,00.0,38.1,30.7,25.2,0002.0,0013.43,0008.69,0008.04
2021-08-22 10:33:00,,0823.7,5.00,0.00,28.9,28.3,00.0,38.1,30.7,25.2,0002.3,0012.91,0008.65,0008.03
2021-08-22 10:34:00,,0823.7,5.00,0.00,29.0,28.3,00.0,38.1,30.7,25.1,0002.3,0013.23,0008.67,0008.03
2021-08-22 10:35:00,,0823.7,5.01,0.00,28.9,28.2,00.0,38.1,30.7,25.4,0002.1,0013.42,0008.72,0008.06
2021-08-22 10:36:00,,0823.7,5.01,0.00,28.9,28.2,00.0,38.1,30.7,25.4,0002.1,0013.43,0008.74,0008.09
2021-08-22 10:37:00,,0823.7,5.00,0.00,28.9,28.2,00.0,38.1,30.7,24.8,0001.8,0013.33,0008.70,0008.09
2021-08-22 10:38:00,,0823.7,4.98,0.00,28.9,28.2,00.0,38.1,30.6,24.6,0001.9,0013.43,0008.68,0008.08
2021-08-22 10:39:00,,0823.7,5.01,0.00,28.9,28.2,00.0,38.1,30.7,24.5,0002.0,0013.32,0008.62,0008.05
2021-08-22 10:40:00,,0823.7,5.00,0.00,28.9,28.2,00.0,38.1,30.7,24.6,0002.0,0013.47,0008.61,0008.05
2021-08-22 10:41:00,,0823.7,4.98,0.00,28.9,28.2,00.0,38.1,30.7,24.5,0001.8,0013.46,0008.61,0008.03
2021-08-22 10:42:00,,0823.6,5.00,0.00,28.9,28.2,00.0,38.1,30.6,24.9,0001.8,0013.60,0008.59,0008.01
2021-08-22 10:43:00,,0823.6,4.99,0.00,28.8,28.1,00.0,38.0,30.6,25.0,0001.9,0013.16,0008.58,0007.98
2021-08-22 10:44:00,,0823.5,5.01,0.00,28.8,28.2,00.0,38.0,30.6,24.7,0001.7,0013.09,0008.58,0007.96
2021-08-22 10:45:00,,0823.6,5.00,0.00,28.8,28.1,00.0,38.0,30.6,24.8,0001.5,0012.68,0008.53,0007.95
2021-08-22 10:46:00,,0823.6,5.00,0.00,28.8,28.1,00.0,38.0,30.6,24.9,0001.8,0012.52,0008.48,0007.92
2021-08-22 10:47:00,,0823.6,5.00,0.00,28.8,28.1,00.0,38.0,30.5,24.8,0002.0,0012.51,0008.46,0007.90
2021-08-22 10:48:00,,0823.7,5.00,0.00,28.8,28.1,00.0,38.0,30.5,24.8,0002.3,0012.50,0008.46,0007.90
2021-08-22 10:49:00,,0823.7,5.01,0.00,28.7,28.0,00.0,38.0,30.5,25.0,0002.2,0012.30,0008.45,0007.90
2021-08-22 10:50:00,,0823.7,5.00,0.00,28.7,28.0,00.0,38.0,30.5,25.1,0002.1,0012.25,0008.45,0007.90
2021-08-22 10:51:00,,0823.7,5.00,0.00,28.7,28.0,00.0,38.0,30.4,25.1,0002.1,0012.00,0008.43,0007.89
2021-08-22 10:52:00,,0823.7,4.99,0.00,28.7,28.0,00.0,38.0,30.5,26.4,0002.2,0011.99,0008.42,0007.89
2021-08-22 10:53:00,,0823.7,5.00,0.00,28.7,28.0,00.0,37.9,30.5,26.2,0002.2,0011.71,0008.39,0007.86
2021-08-22 10:54:00,,0823.7,5.00,0.00,28.7,28.1,00.0,37.9,30.5,26.0,0002.1,0011.61,0008.34,0007.83
2021-08-22 10:55:00,,0823.7,4.99,0.00,28.7,28.1,00.0,37.9,30.5,26.0,0001.9,0011.67,0008.30,0007.81
2021-08-22 10:56:00,,0823.7,5.00,0.00,28.7,28.1,00.0,37.9,30.5,25.7,0001.7,0011.98,0008.28,0007.78
2021-08-22 10:57:00,,0823.7,4.98,0.00,28.7,28.1,00.0,37.9,30.5,25.1,0001.6,0011.88,0008.23,0007.76
2021-08-22 10:58:00,,0823.7,5.01,0.00,28.7,28.1,00.0,37.9,30.5,25.0,0001.4,0011.83,0008.22,0007.75
2021-08-22 10:59:00,,0823.7,4.99,0.00,28.7,28.1,00.0,37.9,30.5,24.9,0001.5,0012.25,0008.21,0007.72
